User: anonymous
Location: Caltech
(34.1382°N, 118.1253°W)
Time: 08:53:02
(UTC-07:00)
Language:

Cosmos 2360 Rocket - Orbit

View from above orbital plane
View from above orbital plane
View from above satellite
View from above satellite

Ground track
Ground track

The orbit data is extracted from the following two-line orbital elements,

1 25407U 98045B   14110.14613384 -.00000128  00000-0 -40790-4 0  4465
2 25407 071.0113 306.4154 0007315 182.5751 316.4593 14.15655245812854
Epoch (UTC): 20 April 2014 03:30:25
Eccentricity: 0.0007315
inclination: 71.0113°
perigee height: 835 km
apogee height: 845 km
right ascension of ascending node: 306.4154°
argument of perigee: 182.5751°
revolutions per day: 14.15655245
mean anomaly at epoch: 316.4593°
orbit number at epoch: 81285

The dashed part of the orbit path shows where the satellite is in the earth's shadow,  

DLR